EW5239 Weather Reports


time (UTC)temp
C
wind
direction
speed
KPH
gust
KPH
rain 1hr
cm
rain 24hr
cm
rain mn
cm
humidity
%
barometer
mb
20260904070508 18 258 14.5 20.9 0.00 0.00 0.00 85 1011.4
20260904070453 18 264 16.1 22.5 0.00 0.10 0.00 85 1013.4
20260904065958 18 252 12.9 22.5 0.00 0.10 0.00 85 1013.3
20260904065508 18 262 12.9 24.1 0.00 0.00 0.00 86 1011.3
20260904065453 17 258 12.9 24.1 0.00 0.10 0.00 85 1013.3
20260904065008 18 271 14.5 24.1 0.00 0.00 0.00 86 1011.6
20260904064952 17 253 14.5 24.1 0.00 0.10 0.00 86 1013.5
20260904064507 17 249 14.5 24.1 0.00 0.00 0.00 86 1011.6
20260904064453 17 264 12.9 24.1 0.00 0.10 0.00 86 1013.6
20260904064008 17 245 14.5 20.9 0.00 0.00 0.00 86 1011.6
20260904063953 17 263 14.5 22.5 0.00 0.10 0.00 86 1013.5
20260904063453 17 254 16.1 22.5 0.00 0.10 0.00 86 1013.6
20260904063008 17 284 17.7 24.1 0.00 0.00 0.00 86 1011.9
20260904062953 17 266 17.7 22.5 0.00 0.10 0.00 86 1013.7
20260904062508 17 269 16.1 24.1 0.00 0.00 0.00 86 1011.7
20260904062452 17 257 14.5 22.5 0.00 0.10 0.00 86 1013.5
20260904062007 17 256 12.9 16.1 0.00 0.00 0.00 86 1011.5
20260904061952 17 247 14.5 17.7 0.00 0.10 0.00 86 1013.5
20260904061453 17 253 14.5 19.3 0.00 0.10 0.00 86 1013.6
20260904061008 17 298 14.5 19.3 0.00 0.00 0.00 86 1011.6
20260904060953 17 247 14.5 19.3 0.00 0.10 0.00 86 1013.2
20260904060507 17 290 12.9 14.5 0.00 0.00 0.00 86 1011.3
20260904060008 17 244 11.3 16.1 0.00 0.00 0.00 86 1011.2
20260904055958 17 256 11.3 16.1 0.00 0.10 0.00 86 1013.3
20260904055452 17 283 12.9 16.1 0.00 0.10 0.00 87 1013.5
20260904055008 17 278 11.3 12.9 0.00 0.00 0.00 86 1011.5
20260904054508 17 242 9.7 12.9 0.00 0.00 0.00 87 1011.4
20260904054453 17 275 9.7 12.9 0.00 0.10 0.00 87 1013.4
20260904054008 16 226 9.7 12.9 0.00 0.00 0.00 88 1011.3
20260904053953 16 246 9.7 12.9 0.00 0.10 0.00 88 1013.4
20260904053507 16 254 9.7 14.5 0.00 0.00 0.00 88 1011.4
20260904053453 16 232 9.7 12.9 0.00 0.10 0.00 88 1013.5
20260904052508 16 233 9.7 16.1 0.00 0.00 0.00 88 1011.5
20260904052453 16 256 9.7 16.1 0.00 0.10 0.00 89 1013.3
20260904052007 16 246 9.7 17.7 0.00 0.00 0.00 88 1011.4
20260904051953 16 289 9.7 16.1 0.00 0.10 0.00 89 1013.4
20260904051508 16 256 12.9 17.7 0.00 0.00 0.00 88 1011.4
20260904051453 16 280 12.9 16.1 0.00 0.10 0.00 89 1013.5
20260904051008 16 256 12.9 14.5 0.00 0.00 0.00 89 1011.5
20260904050953 16 240 11.3 16.1 0.00 0.10 0.00 89 1013.5
20260904050507 16 243 11.3 14.5 0.00 0.00 0.00 89 1011.6
20260904050453 16 229 11.3 14.5 0.00 0.10 0.00 90 1013.5
20260904050008 16 240 11.3 14.5 0.00 0.00 0.00 89 1011.7
20260904045959 16 243 11.3 14.5 0.00 0.10 0.00 90 1013.7
20260904045453 16 249 11.3 17.7 0.00 0.10 0.00 90 1013.6
20260904044953 16 261 11.3 17.7 0.00 0.10 0.00 90 1013.5
20260904044453 16 262 11.3 16.1 0.00 0.10 0.00 90 1013.6
20260904044007 16 290 12.9 17.7 0.00 0.00 0.00 89 1011.6
20260904043953 16 282 12.9 17.7 0.00 0.10 0.00 90 1013.3
20260904043508 16 270 12.9 17.7 0.00 0.00 0.00 89 1011.8
20260904043453 16 320 12.9 17.7 0.00 0.10 0.00 90 1013.7
20260904043008 16 253 11.3 12.9 0.00 0.00 0.00 89 1011.8
20260904042952 16 286 11.3 12.9 0.00 0.10 0.00 90 1014.0
20260904042507 16 248 12.9 17.7 0.00 0.00 0.00 89 1011.8
20260904042453 16 268 12.9 17.7 0.00 0.10 0.00 90 1014.0
20260904042008 16 258 12.9 17.7 0.00 0.00 0.00 89 1011.6
20260904041953 16 280 12.9 17.7 0.00 0.10 0.00 90 1013.6
20260904041508 16 306 12.9 17.7 0.00 0.00 0.00 89 1011.8
20260904041453 16 279 11.3 16.1 0.00 0.10 0.00 90 1013.9
20260904040953 16 271 11.3 14.5 0.00 0.10 0.00 90 1013.5
20260904040508 16 346 11.3 14.5 0.00 0.00 0.00 88 1011.8
20260904040453 16 260 11.3 14.5 0.00 0.10 0.00 90 1013.9
20260904040008 16 267 12.9 14.5 0.00 0.00 0.00 88 1011.7
20260904035959 16 270 11.3 14.5 0.00 0.10 0.00 89 1013.6
20260904035452 16 278 11.3 14.5 0.00 0.10 0.00 88 1013.7
20260904035008 16 277 12.9 17.7 0.00 0.00 0.00 87 1011.7
20260904034953 16 261 12.9 17.7 0.00 0.10 0.00 88 1013.7
20260904034508 16 288 12.9 17.7 0.00 0.00 0.00 86 1011.7
20260904034007 16 278 12.9 16.1 0.00 0.00 0.00 85 1011.7
20260904033953 17 261 12.9 17.7 0.00 0.10 0.00 84 1013.6
20260904033507 17 270 12.9 16.1 0.00 0.00 0.00 83 1011.7
20260904033453 17 253 12.9 17.7 0.00 0.10 0.00 84 1013.6
20260904033008 17 273 11.3 16.1 0.00 0.00 0.00 83 1011.5
20260904032953 17 248 11.3 16.1 0.00 0.10 0.00 83 1013.5
20260904032507 17 255 11.3 16.1 0.00 0.00 0.00 83 1011.5
20260904032453 17 255 11.3 16.1 0.00 0.10 0.00 83 1013.5
20260904031953 17 264 9.7 16.1 0.00 0.10 0.00 83 1013.6
20260904031508 17 256 9.7 16.1 0.00 0.00 0.00 83 1011.8
20260904031007 17 255 9.7 16.1 0.00 0.00 0.00 82 1011.6
20260904030508 17 277 12.9 14.5 0.00 0.00 0.00 82 1011.6
20260904030453 17 240 12.9 16.1 0.00 0.10 0.00 82 1013.6
20260904030008 17 272 14.5 17.7 0.00 0.00 0.00 82 1011.7
20260904030002 17 248 14.5 17.7 0.00 0.10 0.00 82 1013.7
20260904025508 17 258 14.5 17.7 0.00 0.00 0.00 82 1011.7
20260904025453 17 251 14.5 17.7 0.00 0.10 0.00 82 1013.9
20260904025007 17 256 14.5 17.7 0.00 0.00 0.00 82 1011.8
20260904024953 17 268 14.5 17.7 0.00 0.10 0.00 82 1013.8
20260904024508 17 264 12.9 19.3 0.00 0.00 0.00 82 1012.0
20260904024007 17 269 12.9 19.3 0.00 0.00 0.00 82 1011.8
20260904023953 17 270 12.9 17.7 0.00 0.10 0.00 82 1013.8
20260904023507 17 268 12.9 19.3 0.00 0.00 0.00 82 1011.9
20260904022507 17 272 12.9 17.7 0.00 0.00 0.00 82 1011.7
20260904022453 17 266 12.9 19.3 0.00 0.10 0.00 82 1013.8
20260904022008 17 283 12.9 16.1 0.00 0.00 0.00 82 1011.9
20260904021953 17 273 12.9 17.7 0.00 0.10 0.00 82 1013.7
20260904021454 17 280 12.9 17.7 0.00 0.10 0.00 81 1013.8
20260904021007 17 305 14.5 17.7 0.00 0.00 0.00 81 1011.8
20260904020953 17 310 12.9 17.7 0.00 0.10 0.00 81 1013.6
20260904020508 17 321 16.1 20.9 0.00 0.00 0.00 81 1011.7
20260904020453 17 314 14.5 20.9 0.00 0.10 0.00 81 1013.8
20260904020007 17 304 14.5 20.9 0.00 0.00 0.00 81 1011.8
20260904015959 17 304 14.5 20.9 0.00 0.10 0.00 81 1013.9
20260904015507 17 269 12.9 17.7 0.00 0.00 0.00 80 1011.7
20260904015453 17 286 12.9 17.7 0.00 0.10 0.00 80 1013.7
20260904014953 17 272 11.3 16.1 0.00 0.10 0.00 79 1014.0
20260904014507 17 253 14.5 19.3 0.00 0.00 0.00 80 1011.8
20260904014453 17 287 14.5 20.9 0.00 0.10 0.00 79 1013.9
20260904014008 17 245 16.1 24.1 0.00 0.00 0.00 79 1011.9
20260904013953 17 294 16.1 24.1 0.00 0.10 0.00 79 1013.9
20260904013453 17 286 16.1 24.1 0.00 0.10 0.00 78 1014.0
20260904013007 17 252 14.5 19.3 0.00 0.00 0.00 79 1011.8
20260904012953 17 266 14.5 17.7 0.00 0.10 0.00 78 1014.0
20260904012508 17 273 12.9 19.3 0.00 0.00 0.00 78 1011.9
20260904012453 17 252 14.5 17.7 0.00 0.10 0.00 78 1014.1
20260904011953 17 265 12.9 17.7 0.00 0.10 0.00 77 1013.9
20260904011507 17 266 12.9 14.5 0.00 0.00 0.00 78 1012.0
20260904011453 17 263 12.9 14.5 0.00 0.10 0.00 77 1014.0
20260904010953 17 254 12.9 17.7 0.00 0.10 0.00 77 1014.1
20260904010507 17 310 12.9 17.7 0.00 0.00 0.00 78 1012.0
20260904010453 17 259 12.9 17.7 0.00 0.10 0.00 77 1014.0
20260904010008 17 290 11.3 16.1 0.00 0.00 0.00 77 1011.9
20260904005958 17 240 12.9 16.1 0.00 0.10 0.00 77 1014.1
20260904005508 17 263 11.3 14.5 0.00 0.00 0.00 77 1012.0
20260904005453 17 234 11.3 14.5 0.00 0.10 0.00 77 1013.9
20260904005007 17 253 11.3 14.5 0.00 0.00 0.00 77 1012.0
20260904004953 17 257 11.3 14.5 0.00 0.10 0.00 77 1014.3
20260904004453 17 245 11.3 14.5 0.00 0.10 0.00 76 1014.1
20260904004008 17 240 9.7 12.9 0.00 0.00 0.00 76 1012.0
20260904003953 17 243 9.7 14.5 0.00 0.10 0.00 76 1014.1
20260904003507 17 226 6.4 9.7 0.00 0.00 0.00 76 1012.2
20260904003453 17 246 8.0 11.3 0.00 0.10 0.00 75 1014.1
20260904003008 17 239 6.4 9.7 0.00 0.00 0.00 75 1012.1
20260904002953 17 246 8.0 8.0 0.00 0.10 0.00 75 1014.1
20260904002508 17 243 8.0 9.7 0.00 0.00 0.00 75 1012.4
20260904002453 17 273 8.0 11.3 0.00 0.10 0.00 75 1013.9
20260904002007 17 239 8.0 9.7 0.00 0.00 0.00 74 1012.2
20260904001453 17 242 8.0 11.3 0.00 0.10 0.00 74 1014.3
20260904000953 17 228 8.0 9.7 0.00 0.10 0.00 73 1014.2
20260904000507 17 198 8.0 9.7 0.00 0.00 0.00 73 1012.4
20260904000455 17 233 8.0 11.3 0.00 0.10 0.00 73 1014.3
20260904000008 17 232 6.4 9.7 0.00 0.00 0.00 73 1012.5
20260903235959 17 238 6.4 11.3 0.00 0.10 0.00 73 1014.4
20260903235508 17 232 6.4 8.0 0.00 0.00 0.00 73 1012.4
20260903234453 17 245 8.0 9.7 0.00 0.10 0.00 72 1014.4
20260903233953 17 234 8.0 12.9 0.00 0.10 0.00 71 1014.5
20260903233507 17 246 4.8 12.9 0.00 0.00 0.00 72 1012.3
20260903233453 17 248 6.4 12.9 0.00 0.10 0.00 71 1014.4
20260903233008 17 241 4.8 6.4 0.00 0.00 0.00 71 1012.5
20260903232953 17 260 6.4 9.7 0.00 0.10 0.00 71 1014.4
20260903232007 18 272 8.0 12.9 0.00 0.00 0.00 70 1012.5
20260903231953 18 226 9.7 12.9 0.00 0.10 0.00 69 1014.5
20260903231508 18 269 11.3 14.5 0.00 0.00 0.00 70 1012.6
20260903231453 18 237 11.3 14.5 0.00 0.10 0.00 69 1014.5
20260903231008 18 262 11.3 14.5 0.00 0.00 0.00 70 1012.7
20260903230507 18 259 12.9 16.1 0.00 0.00 0.00 70 1012.7
20260903230453 18 269 12.9 16.1 0.00 0.10 0.00 69 1014.7
20260903230008 18 262 11.3 16.1 0.00 0.00 0.00 70 1012.7
20260903225959 18 276 11.3 16.1 0.00 0.10 0.00 69 1014.7
20260903225508 18 261 9.7 12.9 0.00 0.00 0.00 69 1012.8
20260903225453 18 273 9.7 12.9 0.00 0.10 0.00 68 1014.9
20260903225007 18 234 11.3 17.7 0.00 0.00 0.00 69 1012.7
20260903224508 18 248 12.9 17.7 0.00 0.00 0.00 69 1012.8
20260903224453 18 232 12.9 17.7 0.00 0.10 0.00 68 1014.8
20260903224007 18 261 12.9 17.7 0.00 0.00 0.00 69 1012.7
20260903223507 18 240 12.9 14.5 0.00 0.00 0.00 70 1012.8
20260903223453 18 242 12.9 17.7 0.00 0.10 0.00 68 1014.9
20260903223008 17 231 9.7 12.9 0.00 0.00 0.00 70 1012.8
20260903222953 17 242 9.7 16.1 0.00 0.10 0.00 68 1014.8
20260903222453 17 241 6.4 12.9 0.00 0.10 0.00 69 1014.4
20260903222007 17 228 6.4 12.9 0.00 0.00 0.00 71 1012.6
20260903221953 17 247 6.4 12.9 0.00 0.10 0.00 69 1014.8
20260903221507 17 246 4.8 6.4 0.00 0.00 0.00 71 1012.7
20260903221453 17 236 6.4 9.7 0.00 0.10 0.00 69 1014.6
20260903221007 17 268 4.8 6.4 0.00 0.00 0.00 71 1012.6
20260903220953 17 228 6.4 8.0 0.00 0.10 0.00 70 1014.6
20260903220507 17 264 4.8 6.4 0.00 0.00 0.00 71 1012.7
20260903220453 17 238 6.4 6.4 0.00 0.10 0.00 69 1014.7
20260903220008 17 245 4.8 8.0 0.00 0.00 0.00 71 1012.6
20260903220001 17 251 6.4 8.0 0.00 0.10 0.00 69 1014.7
20260903215508 17 241 6.4 8.0 0.00 0.00 0.00 71 1012.8
20260903215454 17 223 6.4 8.0 0.00 0.10 0.10 69 1014.5
20260903214953 17 209 4.8 6.4 0.00 0.10 0.10 69 1014.4
20260903214507 17 221 4.8 8.0 0.00 0.00 0.00 70 1012.7
20260903214453 17 215 4.8 6.4 0.00 0.10 0.10 69 1014.5
20260903214008 17 237 6.4 11.3 0.00 0.00 0.00 70 1012.7
20260903213953 17 221 6.4 12.9 0.00 0.10 0.10 69 1014.6
20260903213507 17 244 4.8 11.3 0.00 0.00 0.00 70 1012.7
20260903213453 17 224 6.4 12.9 0.00 0.10 0.10 69 1014.6
20260903213007 17 231 4.8 6.4 0.00 0.00 0.00 70 1012.9
20260903212953 17 230 6.4 9.7 0.00 0.10 0.10 69 1014.8
20260903212508 17 227 4.8 9.7 0.00 0.00 0.00 70 1012.8
20260903212453 17 241 4.8 6.4 0.00 0.10 0.10 68 1014.8
20260903212007 17 223 4.8 9.7 0.00 0.00 0.00 69 1012.9
20260903211953 17 227 4.8 8.0 0.00 0.10 0.10 68 1015.0
20260903211507 17 191 4.8 8.0 0.00 0.00 0.00 69 1012.8
20260903210953 17 223 4.8 6.4 0.00 0.10 0.10 67 1014.7
20260903210507 17 236 6.4 9.7 0.00 0.00 0.00 69 1012.9
20260903210453 17 206 6.4 9.7 0.00 0.10 0.10 67 1015.0
20260903210007 17 238 6.4 9.7 0.00 0.00 0.00 69 1013.0
20260903205958 17 189 6.4 9.7 0.00 0.10 0.10 67 1014.9
20260903205508 17 237 6.4 9.7 0.00 0.00 0.00 69 1013.0
20260903205453 17 209 6.4 9.7 0.00 0.10 0.10 67 1014.8
20260903204007 17 219 3.2 8.0 0.00 0.00 0.00 69 1013.0
20260903203953 17 228 4.8 8.0 0.00 0.10 0.10 67 1015.0
20260903203507 17 230 3.2 8.0 0.00 0.00 0.00 69 1013.2
20260903203453 17 229 4.8 8.0 0.00 0.10 0.10 67 1015.0
20260903203008 17 240 3.2 4.8 0.00 0.00 0.00 69 1013.2
20260903202453 17 200 4.8 6.4 0.00 0.10 0.10 67 1014.9
20260903202007 17 175 3.2 6.4 0.00 0.00 0.00 69 1013.1
20260903201953 17 200 4.8 6.4 0.00 0.10 0.10 67 1015.1
20260903201507 17 195 1.6 3.2 0.00 0.00 0.00 69 1013.2
20260903201453 17 197 3.2 4.8 0.00 0.10 0.10 67 1015.3
20260903201007 17 181 0.0 3.2 0.00 0.00 0.00 69 1013.4
20260903200953 17 189 3.2 4.8 0.00 0.10 0.10 67 1015.0
20260903200507 17 222 0.0 1.6 0.00 0.00 0.00 68 1013.4
20260903200454 17 187 3.2 4.8 0.00 0.10 0.10 67 1015.6
20260903200007 17 261 1.6 6.4 0.00 0.00 0.00 68 1013.4
20260903195958 17 203 3.2 6.4 0.00 0.10 0.10 67 1015.4
20260903195507 17 225 3.2 6.4 0.00 0.00 0.00 68 1013.4
20260903195453 17 198 4.8 6.4 0.00 0.10 0.10 67 1015.3
20260903195007 18 202 3.2 6.4 0.00 0.00 0.00 68 1013.4
20260903194955 18 189 4.8 6.4 0.00 0.10 0.10 67 1015.3
20260903194508 18 192 3.2 6.4 0.00 0.00 0.00 68 1013.5
20260903193953 18 179 3.2 6.4 0.00 0.10 0.10 67 1015.4
20260903193454 18 193 3.2 4.8 0.00 0.10 0.10 67 1015.3
20260903193007 18 205 0.0 3.2 0.00 0.00 0.00 68 1013.5
20260903192953 18 196 3.2 3.2 0.00 0.10 0.10 67 1015.4
20260903192453 18 192 1.6 3.2 0.00 0.10 0.10 67 1015.4
20260903192008 18 0 0.0 0.0 0.00 0.00 0.00 69 1013.6
20260903191953 18 195 1.6 3.2 0.00 0.10 0.10 67 1015.4
20260903191507 18 270 0.0 3.2 0.00 0.00 0.00 69 1013.6
20260903191453 18 194 3.2 3.2 0.00 0.10 0.10 67 1015.4
20260903191007 18 253 1.6 8.0 0.00 0.00 0.00 69 1013.7
20260903190953 18 196 3.2 8.0 0.00 0.10 0.10 68 1015.7
20260903190508 18 196 3.2 8.0 0.00 0.00 0.00 69 1013.8
20260903190453 18 188 4.8 8.0 0.00 0.10 0.10 68 1015.7
20260903190007 18 187 3.2 8.0 0.00 0.00 0.00 69 1013.7
20260903185959 18 190 4.8 8.0 0.00 0.10 0.10 68 1015.8
20260903185454 18 197 4.8 8.0 0.00 0.10 0.10 69 1015.7
20260903185008 18 202 1.6 4.8 0.00 0.00 0.00 69 1014.0
20260903184953 18 187 4.8 6.4 0.00 0.10 0.10 68 1015.9
20260903184507 18 181 1.6 4.8 0.00 0.00 0.00 69 1013.8
20260903184453 18 181 3.2 4.8 0.00 0.10 0.10 68 1015.7
20260903184008 18 186 3.2 6.4 0.00 0.00 0.00 69 1014.0
20260903183954 18 157 4.8 8.0 0.00 0.10 0.10 68 1015.9
20260903183507 18 181 4.8 6.4 0.00 0.00 0.00 69 1014.0
20260903183453 18 158 6.4 8.0 0.00 0.10 0.10 68 1016.0
20260903183007 18 172 1.6 6.4 0.00 0.00 0.00 69 1013.9
20260903182953 18 174 4.8 6.4 0.00 0.10 0.10 68 1015.7
20260903182508 18 181 0.0 1.6 0.00 0.00 0.00 69 1013.9
20260903182453 18 181 1.6 3.2 0.00 0.10 0.10 67 1015.9
20260903182008 18 181 0.0 3.2 0.00 0.00 0.00 69 1014.0
20260903181953 18 181 1.6 4.8 0.00 0.10 0.10 67 1016.0
20260903181508 18 181 0.0 3.2 0.00 0.00 0.00 69 1014.0
20260903181453 18 181 3.2 4.8 0.00 0.10 0.10 67 1015.8
20260903181007 18 0 0.0 0.0 0.00 0.00 0.00 68 1014.2
20260903180953 18 181 1.6 3.2 0.00 0.10 0.10 67 1015.9
20260903180507 18 0 0.0 0.0 0.00 0.00 0.00 68 1014.1
20260903180453 18 181 3.2 3.2 0.00 0.10 0.10 67 1015.9
20260903180008 18 0 0.0 0.0 0.00 0.00 0.00 68 1013.9
20260903175959 18 183 1.6 3.2 0.00 0.10 0.10 67 1016.2
20260903175508 18 0 0.0 0.0 0.00 0.00 0.00 68 1013.9
20260903175453 18 212 1.6 3.2 0.00 0.10 0.10 67 1015.8
20260903175007 18 0 0.0 0.0 0.00 0.00 0.00 68 1013.9
20260903174953 18 234 3.2 4.8 0.00 0.10 0.10 67 1015.7
20260903174507 18 237 1.6 9.7 0.00 0.00 0.00 68 1014.1
20260903174453 18 245 4.8 8.0 0.00 0.10 0.10 67 1015.9
20260903174007 18 251 4.8 9.7 0.00 0.00 0.00 68 1014.1
20260903173953 18 261 6.4 9.7 0.00 0.10 0.10 67 1015.8
20260903173507 18 260 6.4 9.7 0.00 0.00 0.00 68 1014.0
20260903173454 18 268 6.4 9.7 0.00 0.10 0.10 65 1016.0
20260903173007 18 276 6.4 9.7 0.00 0.00 0.00 66 1014.0
20260903172508 18 290 8.0 12.9 0.00 0.00 0.00 66 1014.0
20260903172454 18 254 9.7 12.9 0.00 0.10 0.10 65 1016.0
20260903172007 19 270 8.0 12.9 0.00 0.00 0.00 66 1014.1
20260903171953 19 255 8.0 12.9 0.00 0.10 0.10 65 1015.9
20260903171507 19 249 6.4 9.7 0.00 0.00 0.00 65 1014.0
20260903171454 19 265 8.0 9.7 0.00 0.10 0.10 64 1016.0
20260903171007 19 253 6.4 8.0 0.00 0.00 0.00 65 1014.0
20260903170453 19 281 8.0 11.3 0.00 0.10 0.10 64 1015.9
20260903170007 20 264 11.3 12.9 0.00 0.00 0.00 64 1013.8
20260903165959 20 281 11.3 14.5 0.00 0.10 0.10 63 1015.9
20260903165507 20 260 11.3 14.5 0.00 0.00 0.00 62 1013.8
20260903165453 20 273 11.3 14.5 0.00 0.10 0.10 61 1015.9
20260903165007 20 248 11.3 14.5 0.00 0.00 0.00 62 1013.9
20260903164953 20 272 11.3 14.5 0.00 0.10 0.10 60 1015.8
20260903164507 20 245 9.7 12.9 0.00 0.00 0.00 61 1013.7
20260903164453 20 283 11.3 12.9 0.00 0.10 0.10 59 1015.7
20260903164008 20 247 12.9 17.7 0.00 0.00 0.00 60 1013.8
20260903163953 20 279 12.9 20.9 0.00 0.10 0.10 58 1015.6
20260903163507 20 248 14.5 22.5 0.00 0.00 0.00 60 1013.9
20260903163453 20 275 14.5 22.5 0.00 0.10 0.10 58 1015.5
20260903162953 20 268 17.7 24.1 0.00 0.10 0.10 58 1015.8
20260903162508 21 299 14.5 24.1 0.00 0.00 0.00 62 1013.9
20260903162453 20 260 16.1 24.1 0.00 0.10 0.10 60 1015.7